Location: Ústí nad Labem
(50.6611°N, 14.0531°E)
Time: 23:44:41
(UTC+02:00)

Transit 2A Rocket - All Passes

Search period start: 12 April 2024 00:00
Search period end: 22 April 2024 00:00
Orbit: 587 x 907 km, 66.7° (Epoch: 11 April)

Date Brightness Start Highest point End Pass type
(mag) Time Alt. Az. Time Alt. Az. Time Alt. Az.
12 Apr - 14:22:44 10° S 14:26:52 38° ESE 14:31:20 10° NE daylight
12 Apr - 16:05:01 10° WSW 16:09:20 39° NW 16:14:02 10° NNE daylight
12 Apr - 17:50:17 10° NW 17:53:15 16° NNW 17:56:22 10° NNE daylight
12 Apr - 19:35:05 10° NNW 19:37:53 14° N 19:40:48 10° NE daylight
12 Apr - 21:17:29 10° NNW 21:22:06 29° NE 21:27:01 10° E visible
12 Apr - 22:59:42 10° NW 23:05:09 82° SW 23:11:02 10° SSE visible
13 Apr - 00:43:28 10° WNW 00:47:01 17° WSW 00:50:40 10° SW visible
13 Apr - 13:39:45 10° SSE 13:43:15 23° ESE 13:46:57 10° ENE daylight
13 Apr - 15:20:46 10° SW 15:25:15 61° NW 15:30:10 10° NNE daylight
13 Apr - 17:05:22 10° WNW 17:08:48 19° NNW 17:12:27 10° NNE daylight
13 Apr - 18:50:49 10° NNW 18:53:21 14° N 18:55:58 10° NNE daylight
13 Apr - 20:33:40 10° NNW 20:37:48 22° NNE 20:42:09 10° E visible
13 Apr - 22:15:48 10° NW 22:21:12 68° NE 22:27:02 10° SE visible
13 Apr - 23:58:47 10° NW 00:03:24 27° WSW 00:08:17 10° SSW visible
14 Apr - 12:57:41 10° SE 12:59:45 13° ESE 13:01:52 10° ENE daylight
14 Apr - 14:36:47 10° SSW 14:41:18 84° SE 14:46:15 10° NE daylight
14 Apr - 16:20:34 10° W 16:24:26 24° NNW 16:28:35 10° NNE daylight
14 Apr - 18:06:15 10° NW 18:08:47 14° N 18:11:26 10° NNE daylight
14 Apr - 19:49:48 10° NNW 19:53:23 18° NNE 19:57:09 10° ENE daylight
14 Apr - 21:31:56 10° NNW 21:37:09 47° NE 21:42:44 10° ESE visible
14 Apr - 23:14:30 10° NW 23:19:42 43° WSW 23:25:13 10° S visible
15 Apr - 13:53:08 10° SSW 13:57:28 50° ESE 14:02:12 10° NE daylight
15 Apr - 15:35:57 10° WSW 15:40:10 33° NW 15:44:45 10° NNE daylight
15 Apr - 17:21:25 10° NW 17:24:15 15° NNW 17:27:13 10° NNE daylight
15 Apr - 19:05:49 10° NNW 19:08:54 15° NNE 19:12:07 10° NE daylight
15 Apr - 20:48:07 10° NNW 20:52:59 34° NE 20:58:11 10° ESE visible
15 Apr - 22:30:26 10° NW 22:35:53 67° WSW 22:41:44 10° SSE visible
16 Apr - 00:14:54 10° WNW 00:17:33 13° WSW 00:20:16 10° SW visible
16 Apr - 13:09:54 10° S 13:13:47 29° ESE 13:17:58 10° NE daylight
16 Apr - 14:51:34 10° WSW 14:56:00 49° NW 15:00:54 10° NNE daylight
16 Apr - 16:36:30 10° WNW 16:39:46 18° NNW 16:43:13 10° NNE daylight
16 Apr - 18:21:40 10° NNW 18:24:22 14° N 18:27:10 10° NE daylight
16 Apr - 20:04:18 10° NNW 20:08:43 25° NNE 20:13:25 10° E daylight
16 Apr - 21:46:28 10° NW 21:51:58 82° NE 21:57:52 10° SE visible
16 Apr - 23:29:47 10° WNW 23:34:00 22° WSW 23:38:24 10° SSW visible
17 Apr - 12:27:16 10° SSE 12:30:13 17° ESE 12:33:19 10° ENE daylight
17 Apr - 14:07:26 10° SW 14:11:59 77° NW 14:17:00 10° NE daylight
17 Apr - 15:51:38 10° WNW 15:55:21 22° NNW 15:59:18 10° NNE daylight
17 Apr - 17:37:15 10° NNW 17:39:48 14° N 17:42:28 10° NNE daylight
17 Apr - 19:20:27 10° NNW 19:24:20 20° NNE 19:28:27 10° ENE daylight
17 Apr - 21:02:35 10° NNW 21:07:57 56° NE 21:13:43 10° SE visible
17 Apr - 22:45:20 10° NW 22:50:20 35° WSW 22:55:37 10° S visible
18 Apr - 13:23:37 10° SSW 13:28:05 65° ESE 13:33:00 10° NE daylight
18 Apr - 15:06:56 10° W 15:11:01 29° NW 15:15:27 10° NNE daylight
18 Apr - 16:52:31 10° NW 16:55:15 14° N 16:58:05 10° NNE daylight
18 Apr - 18:36:31 10° NNW 18:39:53 17° NNE 18:43:25 10° ENE daylight
18 Apr - 20:18:45 10° NNW 20:23:50 39° NE 20:29:16 10° ESE daylight
18 Apr - 22:01:10 10° NW 22:06:34 54° WSW 22:12:18 10° SSE visible
18 Apr - 23:47:22 10° W 23:48:03 10° WSW 23:48:43 10° WSW visible
19 Apr - 12:40:09 10° S 12:44:20 38° ESE 12:48:52 10° NE daylight
19 Apr - 14:22:24 10° WSW 14:26:48 40° NW 14:31:35 10° NNE daylight
19 Apr - 16:07:37 10° NW 16:10:43 16° NNW 16:13:58 10° NNE daylight
19 Apr - 17:52:27 10° NNW 17:55:22 15° N 17:58:24 10° NE daylight
19 Apr - 19:34:55 10° NNW 19:39:36 29° NE 19:44:35 10° E daylight
19 Apr - 21:17:09 10° NW 21:22:41 83° SW 21:28:37 10° SSE visible
19 Apr - 23:00:54 10° WNW 23:04:32 18° WSW 23:08:19 10° SSW visible
20 Apr - 11:57:11 10° SSE 12:00:42 23° ESE 12:04:27 10° ENE daylight
20 Apr - 13:38:09 10° SW 13:42:42 62° NW 13:47:42 10° NNE daylight
20 Apr - 15:22:43 10° WNW 15:26:15 20° NNW 15:30:01 10° NNE daylight
20 Apr - 17:08:09 10° NNW 17:10:48 14° N 17:13:34 10° NNE daylight
20 Apr - 18:51:04 10° NNW 18:55:16 23° NNE 18:59:42 10° E daylight
20 Apr - 20:33:13 10° NW 20:38:43 68° NE 20:44:35 10° SE visible
20 Apr - 22:16:12 10° NW 22:20:56 28° WSW 22:25:52 10° SSW visible
21 Apr - 11:15:06 10° SE 11:17:12 13° ESE 11:19:21 10° ENE daylight
21 Apr - 12:54:10 10° SSW 12:58:43 83° SE 13:03:45 10° NE daylight
21 Apr - 14:37:55 10° W 14:41:52 25° NNW 14:46:08 10° NNE daylight
21 Apr - 16:23:33 10° NW 16:26:13 14° N 16:29:01 10° NNE daylight
21 Apr - 18:07:10 10° NNW 18:10:50 18° NNE 18:14:42 10° ENE daylight
21 Apr - 19:49:21 10° NNW 19:54:37 47° NE 20:00:16 10° ESE daylight
21 Apr - 21:31:55 10° NW 21:37:12 44° WSW 21:42:47 10° S visible
